Location: Unspecified
(48.5539°N, 71.6350°W)
Time: 02:04:56
(UTC-05:00)

ISS - Pass Details

Date: 23 January 2019
Orbit: 403 x 411 km, 51.6° (Epoch: 22 February)

Event Time Altitude Azimuth Distance (km) Brightness Sun altitude
Rises 23:34:00 0° 291° (WNW) 2,350 - -60.3°
Reaches altitude 10° 23:36:06 10° 288° (WNW) 1,486 - -60.4°
Maximum altitude 23:39:24 62° 207° (SSW) 470 - -60.5°
Drops below altitude 10° 23:42:41 10° 126° (SE) 1,481 - -60.6°
Sets 23:44:47 0° 123° (ESE) 2,340 - -60.6°
